When you browse on this site, cookies collect data to enhance your experience and personalize the content and advertising you see.
Visit our Privacy Policy to learn more. By continuing to use the site, you agree to this use of cookies and data.
  • In Deutschland
  • Länderverzeichnis
  • Für 7 Tage
  • Wassertemperatur
  • Satellitenkarten
  • Wetterkarte
  • Widgets
  • user-avatar
    Anmelden

    Stündliche Wetter Korçe

    Heute, 17 Juni, Montag

    Zeit Temperatur Niederschläge Wind Luftdruck Luftfeuchtigkeit
    00:00 +15°C° 0 mm 0 m/S 665 mmHg 82%
    01:00 +15°C° 0 mm 0 m/S 665 mmHg 81%
    02:00 +15°C° 0 mm 0 m/S 665 mmHg 81%
    03:00 +15°C° 0 mm 1 m/S 665 mmHg 82%
    04:00 +15°C° 0 mm 1 m/S 665 mmHg 82%
    05:00 +18°C° 0 mm 1 m/S 665 mmHg 76%
    06:00 +20°C° 0 mm 1 m/S 666 mmHg 71%
    07:00 +20°C° 0 mm 0 m/S 667 mmHg 66%
    08:00 +24°C° 0.2 mm 1 m/S 667 mmHg 60%
    09:00 +25°C° 0.2 mm 1 m/S 668 mmHg 54%
    10:00 +26°C° 0.2 mm 1 m/S 668 mmHg 47%
    11:00 +26°C° 0.6 mm 2 m/S 668 mmHg 52%
    12:00 +25°C° 0.6 mm 2 m/S 668 mmHg 56%
    13:00 +24°C° 0.6 mm 2 m/S 667 mmHg 61%
    14:00 +21°C° 2.1 mm 2 m/S 667 mmHg 67%
    15:00 +20°C° 2.1 mm 2 m/S 666 mmHg 73%
    16:00 +18°C° 2.1 mm 2 m/S 666 mmHg 80%
    17:00 +18°C° 0 mm 2 m/S 666 mmHg 81%
    18:00 +18°C° 0 mm 1 m/S 666 mmHg 83%
    19:00 +16°C° 0 mm 1 m/S 665 mmHg 84%
    20:00 +16°C° 0 mm 1 m/S 666 mmHg 82%
    21:00 +15°C° 0 mm 1 m/S 666 mmHg 80%
    22:00 +15°C° 0 mm 1 m/S 666 mmHg 78%
    23:00 +15°C° 0 mm 1 m/S 666 mmHg 77%

    Morgen, 18 Juni, Dienstag

    Zeit Temperatur Niederschläge Wind Luftdruck Luftfeuchtigkeit
    00:00 +14°C° 0 mm 1 m/S 666 mmHg 76%
    01:00 +14°C° 0 mm 1 m/S 666 mmHg 75%
    02:00 +14°C° 0 mm 1 m/S 666 mmHg 75%
    03:00 +14°C° 0 mm 1 m/S 666 mmHg 75%
    04:00 +14°C° 0 mm 1 m/S 666 mmHg 75%
    05:00 +16°C° 0 mm 1 m/S 666 mmHg 71%
    06:00 +19°C° 0 mm 1 m/S 667 mmHg 67%
    07:00 +18°C° 0 mm 0 m/S 667 mmHg 63%
    08:00 +22°C° 0 mm 1 m/S 668 mmHg 58%
    09:00 +23°C° 0 mm 1 m/S 668 mmHg 54%
    10:00 +25°C° 0 mm 1 m/S 669 mmHg 49%
    11:00 +25°C° 0.4 mm 1 m/S 668 mmHg 50%
    12:00 +25°C° 0.4 mm 2 m/S 668 mmHg 51%
    13:00 +25°C° 0.4 mm 2 m/S 668 mmHg 51%
    14:00 +25°C° 1.2 mm 2 m/S 668 mmHg 56%
    15:00 +24°C° 1.2 mm 2 m/S 667 mmHg 61%
    16:00 +23°C° 1.2 mm 2 m/S 667 mmHg 66%
    17:00 +21°C° 0.6 mm 2 m/S 667 mmHg 71%
    18:00 +20°C° 0.6 mm 1 m/S 666 mmHg 76%
    19:00 +19°C° 0.6 mm 1 m/S 666 mmHg 81%
    20:00 +18°C° 0.1 mm 1 m/S 666 mmHg 82%
    21:00 +15°C° 0.1 mm 0 m/S 666 mmHg 83%
    22:00 +14°C° 0.1 mm 0 m/S 666 mmHg 84%
    23:00 +14°C° 0 mm 0 m/S 666 mmHg 84%

    übermorgen, 19 Juni, Mittwoch

    Zeit Temperatur Niederschläge Wind Luftdruck Luftfeuchtigkeit
    00:00 +14°C° 0 mm 0 m/S 666 mmHg 83%
    01:00 +14°C° 0 mm 0 m/S 665 mmHg 82%
    02:00 +14°C° 0 mm 0 m/S 665 mmHg 82%
    03:00 +13°C° 0 mm 0 m/S 665 mmHg 82%
    04:00 +14°C° 0 mm 1 m/S 665 mmHg 82%
    05:00 +16°C° 0 mm 1 m/S 665 mmHg 78%
    06:00 +19°C° 0 mm 1 m/S 666 mmHg 73%
    07:00 +21°C° 0 mm 1 m/S 667 mmHg 68%
    08:00 +22°C° 0.2 mm 1 m/S 667 mmHg 64%
    09:00 +23°C° 0.2 mm 1 m/S 667 mmHg 60%
    10:00 +24°C° 0.2 mm 2 m/S 668 mmHg 56%
    11:00 +25°C° 0.4 mm 2 m/S 667 mmHg 55%
    12:00 +25°C° 0.4 mm 3 m/S 667 mmHg 55%
    13:00 +25°C° 0.4 mm 3 m/S 667 mmHg 55%
    14:00 +25°C° 0.4 mm 3 m/S 667 mmHg 57%
    15:00 +24°C° 0.4 mm 3 m/S 666 mmHg 59%
    16:00 +24°C° 0.4 mm 3 m/S 666 mmHg 61%
    17:00 +21°C° 0.2 mm 2 m/S 666 mmHg 68%
    18:00 +19°C° 0.2 mm 2 m/S 665 mmHg 76%
    19:00 +18°C° 0.2 mm 1 m/S 665 mmHg 84%
    20:00 +16°C° 0 mm 1 m/S 665 mmHg 84%
    21:00 +15°C° 0 mm 1 m/S 665 mmHg 84%
    22:00 +15°C° 0 mm 1 m/S 665 mmHg 85%
    23:00 +14°C° 0 mm 1 m/S 665 mmHg 82%

    20 Juni, Donnerstag

    Zeit Temperatur Niederschläge Wind Luftdruck Luftfeuchtigkeit
    00:00 +14°C° 0 mm 1 m/S 664 mmHg 79%
    01:00 +14°C° 0 mm 1 m/S 664 mmHg 77%
    02:00 +14°C° 0 mm 1 m/S 664 mmHg 74%
    03:00 +14°C° 0 mm 1 m/S 664 mmHg 71%
    04:00 +14°C° 0 mm 1 m/S 664 mmHg 68%
    05:00 +16°C° 0 mm 1 m/S 665 mmHg 65%
    06:00 +18°C° 0 mm 1 m/S 666 mmHg 62%
    07:00 +20°C° 0 mm 1 m/S 666 mmHg 59%
    08:00 +21°C° 0 mm 1 m/S 667 mmHg 56%
    09:00 +23°C° 0 mm 1 m/S 667 mmHg 53%
    10:00 +24°C° 0 mm 2 m/S 667 mmHg 50%
    11:00 +25°C° 0 mm 2 m/S 667 mmHg 50%
    12:00 +25°C° 0 mm 3 m/S 667 mmHg 51%
    13:00 +26°C° 0 mm 3 m/S 667 mmHg 52%
    14:00 +25°C° 0.2 mm 3 m/S 667 mmHg 55%
    15:00 +24°C° 0.2 mm 3 m/S 667 mmHg 58%
    16:00 +24°C° 0.2 mm 3 m/S 667 mmHg 61%
    17:00 +21°C° 0.2 mm 2 m/S 666 mmHg 69%
    18:00 +19°C° 0.2 mm 2 m/S 666 mmHg 76%
    19:00 +19°C° 0.2 mm 1 m/S 666 mmHg 84%
    20:00 +18°C° 0 mm 1 m/S 666 mmHg 85%
    21:00 +16°C° 0 mm 1 m/S 666 mmHg 87%
    22:00 +14°C° 0 mm 0 m/S 666 mmHg 89%
    23:00 +14°C° 0 mm 0 m/S 666 mmHg 87%

    21 Juni, Freitag

    Zeit Temperatur Niederschläge Wind Luftdruck Luftfeuchtigkeit
    00:00 +14°C° 0 mm 0 m/S 666 mmHg 86%
    01:00 +14°C° 0 mm 0 m/S 665 mmHg 85%
    02:00 +15°C° 0 mm 1 m/S 665 mmHg 85%
    03:00 +14°C° 0 mm 1 m/S 665 mmHg 85%
    04:00 +14°C° 0 mm 1 m/S 665 mmHg 85%
    05:00 +16°C° 0 mm 1 m/S 666 mmHg 79%
    06:00 +19°C° 0 mm 1 m/S 667 mmHg 73%
    07:00 +19°C° 0 mm 0 m/S 667 mmHg 68%
    08:00 +23°C° 0 mm 1 m/S 668 mmHg 63%
    09:00 +24°C° 0 mm 1 m/S 668 mmHg 58%
    10:00 +26°C° 0 mm 1 m/S 669 mmHg 53%
    11:00 +26°C° 0.2 mm 1 m/S 669 mmHg 53%
    12:00 +26°C° 0.2 mm 2 m/S 668 mmHg 54%
    13:00 +27°C° 0.2 mm 2 m/S 668 mmHg 54%
    14:00 +26°C° 0.7 mm 2 m/S 668 mmHg 58%
    15:00 +25°C° 0.7 mm 2 m/S 668 mmHg 61%
    16:00 +25°C° 0.7 mm 2 m/S 667 mmHg 65%
    17:00 +23°C° 0.1 mm 2 m/S 667 mmHg 71%
    18:00 +21°C° 0.1 mm 2 m/S 667 mmHg 78%
    19:00 +20°C° 0.1 mm 1 m/S 666 mmHg 85%
    20:00 +19°C° 0 mm 1 m/S 666 mmHg 86%
    21:00 +19°C° 0 mm 1 m/S 667 mmHg 88%
    22:00 +16°C° 0 mm 0 m/S 667 mmHg 89%
    23:00 +16°C° 0 mm 0 m/S 667 mmHg 88%

    22 Juni, Samstag

    Zeit Temperatur Niederschläge Wind Luftdruck Luftfeuchtigkeit
    00:00 +16°C° 0 mm 1 m/S 666 mmHg 88%
    01:00 +16°C° 0 mm 1 m/S 666 mmHg 87%
    02:00 +16°C° 0 mm 1 m/S 666 mmHg 86%
    03:00 +16°C° 0 mm 1 m/S 666 mmHg 86%
    04:00 +15°C° 0 mm 1 m/S 666 mmHg 85%
    05:00 +18°C° 0 mm 1 m/S 666 mmHg 79%
    06:00 +18°C° 0 mm 0 m/S 667 mmHg 73%
    07:00 +20°C° 0 mm 0 m/S 668 mmHg 67%
    08:00 +22°C° 0 mm 0 m/S 668 mmHg 59%
    09:00 +26°C° 0 mm 1 m/S 669 mmHg 51%
    10:00 +27°C° 0 mm 1 m/S 669 mmHg 43%
    11:00 +28°C° 0 mm 1 m/S 669 mmHg 41%
    12:00 +28°C° 0 mm 2 m/S 669 mmHg 39%
    13:00 +29°C° 0 mm 2 m/S 669 mmHg 37%
    14:00 +28°C° 0 mm 2 m/S 669 mmHg 38%
    15:00 +28°C° 0 mm 2 m/S 669 mmHg 40%
    16:00 +28°C° 0 mm 2 m/S 668 mmHg 42%
    17:00 +26°C° 0 mm 2 m/S 668 mmHg 51%
    18:00 +23°C° 0 mm 2 m/S 668 mmHg 60%
    19:00 +21°C° 0 mm 1 m/S 667 mmHg 68%
    20:00 +20°C° 0 mm 1 m/S 667 mmHg 70%
    21:00 +20°C° 0 mm 1 m/S 667 mmHg 71%
    22:00 +19°C° 0 mm 1 m/S 667 mmHg 73%
    23:00 +19°C° 0 mm 1 m/S 667 mmHg 69%
    Mehr zeigen